User: anonymous   Login
Location: Castillon
(43.1358°N, 0.8654°E)
Time: 02:44:42
(UTC+00:00)
Language:

Cosmos 1340 - Orbit

View from above orbital plane
View from above orbital plane
View from above satellite
View from above satellite

Ground track
Ground track

The orbit data is extracted from the following two-line orbital elements,

1 13067U 82013A   21102.55134166  .00000812  00000-0  35164-4 0  9992
2 13067  81.1838 305.0862 0003874 137.0506 223.1029 15.21285572139523
Epoch (UTC): 12 April 2021 13:13:55
Eccentricity: 0.0003874
inclination: 81.1838°
perigee height: 499 km
apogee height: 504 km
right ascension of ascending node: 305.0862°
argument of perigee: 137.0506°
revolutions per day: 15.21285572
mean anomaly at epoch: 223.1029°
orbit number at epoch: 13952

The dashed part of the orbit path shows where the satellite is in the earth's shadow,  

DLR